Hourly Data Report for December 02, 2017

ST. JOHN'S INTL A
NEWFOUNDLAND

47°37'07.000" N
52°45'09.000" W
140.50 m
8403505
71801
YYT

Download Data

Hourly Data (December 2017)
Hourly Data Report for December 2, 2017
TIME
LST
Temp Definition
°C
Dew Point Definition
°C
Rel Hum Definition
%
Precip. Amount Definition
mm

Wind Dir Definition
10's deg

Wind Spd Definition
km/h
Visibility Definition
km
Stn Press Definition
kPa
Hmdx Definition


Wind Chill Definition


Weather Definition


00:30 0.4 0.4 100   36 4 0.6 100.51     Drizzle, Fog
01:30 0.6 0.6 100   36 6 0.8 100.51     Drizzle, Fog
02:30 0.8 0.8 100   1 7 12.9 100.52     Drizzle
03:30 0.9 0.9 100   2 8 2.4 100.49     Drizzle, Fog
04:30 1.0 1.0 100   3 10 16.1 100.47     Drizzle
05:30 0.9 0.9 100   3 14 6.4 100.44     Drizzle, Fog
06:30 0.9 0.9 100   1 7 12.9 100.46     Drizzle
07:30 0.9 0.9 100   3 15 4.0 100.45     Drizzle, Fog
08:30 1.1 1.1 100   3 11 0.4 100.42     Drizzle, Fog
09:30 1.3 1.3 100   1 13 0.2 100.46     Drizzle, Fog
10:30 1.6 1.6 100   4 14 0.2 100.46     Drizzle, Fog
11:30 1.8 1.8 100   2 9 0.4 100.44     Drizzle, Fog
12:30 1.8 1.8 100   5 10 0.8 100.37     Drizzle, Fog
13:30 1.7 1.7 100   3 8 2.0 100.34     Drizzle, Fog
14:30 1.3 1.3 100   6 10 0.6 100.29     Drizzle, Fog
15:30 1.0 1.0 100   6 9 0.8 100.31     Drizzle, Fog
16:30 0.9 0.9 100   6 9 2.4 100.30     Drizzle, Fog
17:30 0.9 0.9 100   6 9 2.0 100.32     Drizzle, Fog
18:30 0.8 0.8 100   5 12 12.9 100.32     Drizzle
19:30 0.9 0.9 100   5 6 24.1 100.33     LegendNANA
20:30 0.8 0.7 100   4 11 24.1 100.33     Cloudy
21:30 0.6 0.4 99   2 10 24.1 100.34     LegendNANA
22:30 0.4 0.2 98   2 11 24.1 100.33     LegendNANA
23:30 0.2 -0.1 98   1 11 24.1 100.34     Cloudy

Notes on Data Quality.

Legend

  • E = Estimated
  • M = Missing
  • NA = Not Available*
  • [empty] = Indicates an unobserved value
Date modified: